When you browse on this site, cookies collect data to enhance your experience and personalize the content and advertising you see.
Visit our Privacy Policy to learn more. By continuing to use the site, you agree to this use of cookies and data.
  • în România
  • Lista ţărilor
  • Pe 7 zile
  • Temperatura apei
  • Hartă satelitară
  • Meteo pe hartă
  • Widget-uri
  • user-avatar
    Intrare

    Meteo pe oră la Wakefield

    Astăzi, 26 Iunie, Miercuri

    Timp Temperatura Precipitaţii Vânt Presiune Umiditate
    00:00 +12°C° 0 mm 4 m/s 763 mmHg 92%
    01:00 +12°C° 0 mm 3 m/s 763 mmHg 92%
    02:00 +12°C° 0 mm 3 m/s 763 mmHg 92%
    03:00 +12°C° 0 mm 3 m/s 763 mmHg 92%
    04:00 +12°C° 0 mm 3 m/s 764 mmHg 91%
    05:00 +12°C° 0 mm 4 m/s 764 mmHg 90%
    06:00 +12°C° 0 mm 4 m/s 765 mmHg 89%
    07:00 +13°C° 0 mm 4 m/s 765 mmHg 86%
    08:00 +13°C° 0 mm 4 m/s 765 mmHg 84%
    09:00 +13°C° 0 mm 4 m/s 766 mmHg 82%
    10:00 +14°C° 0 mm 3 m/s 766 mmHg 79%
    11:00 +16°C° 0 mm 3 m/s 767 mmHg 77%
    12:00 +17°C° 0 mm 3 m/s 767 mmHg 74%
    13:00 +17°C° 0 mm 3 m/s 767 mmHg 72%
    14:00 +18°C° 0 mm 3 m/s 767 mmHg 70%
    15:00 +19°C° 0 mm 3 m/s 766 mmHg 68%
    16:00 +19°C° 0 mm 3 m/s 766 mmHg 69%
    17:00 +18°C° 0 mm 3 m/s 767 mmHg 70%
    18:00 +18°C° 0 mm 4 m/s 767 mmHg 71%
    19:00 +16°C° 0 mm 3 m/s 767 mmHg 75%
    20:00 +14°C° 0 mm 3 m/s 767 mmHg 79%
    21:00 +13°C° 0 mm 2 m/s 767 mmHg 83%
    22:00 +13°C° 0 mm 2 m/s 767 mmHg 82%
    23:00 +12°C° 0 mm 2 m/s 768 mmHg 82%

    Mâine, 27 Iunie, Joi

    Timp Temperatura Precipitaţii Vânt Presiune Umiditate
    00:00 +11°C° 0 mm 1 m/s 768 mmHg 82%
    01:00 +11°C° 0 mm 1 m/s 768 mmHg 81%
    02:00 +10°C° 0 mm 1 m/s 768 mmHg 80%
    03:00 +10°C° 0 mm 1 m/s 767 mmHg 79%
    04:00 +11°C° 0 mm 1 m/s 767 mmHg 75%
    05:00 +12°C° 0 mm 1 m/s 767 mmHg 70%
    06:00 +13°C° 0 mm 1 m/s 767 mmHg 66%
    07:00 +14°C° 0 mm 2 m/s 767 mmHg 63%
    08:00 +16°C° 0 mm 2 m/s 767 mmHg 61%
    09:00 +18°C° 0 mm 2 m/s 768 mmHg 58%
    10:00 +19°C° 0 mm 3 m/s 768 mmHg 57%
    11:00 +21°C° 0 mm 3 m/s 767 mmHg 56%
    12:00 +22°C° 0 mm 3 m/s 767 mmHg 55%
    13:00 +22°C° 0 mm 4 m/s 767 mmHg 56%
    14:00 +22°C° 0 mm 4 m/s 767 mmHg 57%
    15:00 +23°C° 0 mm 5 m/s 767 mmHg 57%
    16:00 +22°C° 0 mm 4 m/s 767 mmHg 60%
    17:00 +21°C° 0 mm 4 m/s 766 mmHg 62%
    18:00 +20°C° 0 mm 4 m/s 766 mmHg 64%
    19:00 +18°C° 0 mm 4 m/s 766 mmHg 70%
    20:00 +16°C° 0 mm 3 m/s 766 mmHg 75%
    21:00 +13°C° 0 mm 3 m/s 766 mmHg 80%
    22:00 +13°C° 0 mm 3 m/s 766 mmHg 82%
    23:00 +12°C° 0 mm 3 m/s 766 mmHg 83%

    Poimâine, 28 Iunie, Vineri

    Timp Temperatura Precipitaţii Vânt Presiune Umiditate
    00:00 +12°C° 0 mm 2 m/s 766 mmHg 85%
    01:00 +12°C° 0 mm 2 m/s 766 mmHg 86%
    02:00 +12°C° 0 mm 2 m/s 765 mmHg 88%
    03:00 +10°C° 0 mm 2 m/s 765 mmHg 89%
    04:00 +12°C° 0 mm 2 m/s 765 mmHg 88%
    05:00 +12°C° 0 mm 2 m/s 765 mmHg 87%
    06:00 +13°C° 0 mm 2 m/s 764 mmHg 86%
    07:00 +13°C° 0 mm 3 m/s 764 mmHg 80%
    08:00 +16°C° 0 mm 3 m/s 764 mmHg 75%
    09:00 +18°C° 0 mm 3 m/s 764 mmHg 69%
    10:00 +19°C° 0 mm 4 m/s 763 mmHg 66%
    11:00 +20°C° 0 mm 4 m/s 763 mmHg 62%
    12:00 +21°C° 0 mm 5 m/s 763 mmHg 59%
    13:00 +22°C° 0 mm 5 m/s 762 mmHg 58%
    14:00 +22°C° 0 mm 5 m/s 762 mmHg 58%
    15:00 +22°C° 0 mm 5 m/s 762 mmHg 57%
    16:00 +22°C° 0 mm 5 m/s 761 mmHg 59%
    17:00 +21°C° 0 mm 5 m/s 761 mmHg 62%
    18:00 +20°C° 0 mm 4 m/s 760 mmHg 64%
    19:00 +19°C° 0 mm 4 m/s 760 mmHg 69%
    20:00 +17°C° 0 mm 4 m/s 760 mmHg 74%
    21:00 +14°C° 0 mm 3 m/s 760 mmHg 79%
    22:00 +14°C° 0 mm 3 m/s 760 mmHg 80%
    23:00 +13°C° 0 mm 3 m/s 760 mmHg 81%

    29 Iunie, Sâmbătă

    Timp Temperatura Precipitaţii Vânt Presiune Umiditate
    00:00 +13°C° 0 mm 2 m/s 759 mmHg 83%
    01:00 +13°C° 0 mm 2 m/s 759 mmHg 83%
    02:00 +13°C° 0 mm 2 m/s 758 mmHg 83%
    03:00 +12°C° 0 mm 2 m/s 758 mmHg 84%
    04:00 +13°C° 0 mm 2 m/s 758 mmHg 82%
    05:00 +14°C° 0 mm 2 m/s 757 mmHg 80%
    06:00 +15°C° 0 mm 2 m/s 757 mmHg 78%
    07:00 +17°C° 0 mm 3 m/s 756 mmHg 75%
    08:00 +19°C° 0 mm 3 m/s 756 mmHg 71%
    09:00 +21°C° 0 mm 3 m/s 756 mmHg 67%
    10:00 +22°C° 0 mm 3 m/s 755 mmHg 65%
    11:00 +25°C° 0 mm 4 m/s 755 mmHg 64%
    12:00 +26°C° 0 mm 4 m/s 754 mmHg 62%
    13:00 +27°C° 0 mm 4 m/s 754 mmHg 63%
    14:00 +27°C° 0 mm 4 m/s 753 mmHg 64%
    15:00 +28°C° 0 mm 4 m/s 753 mmHg 64%
    16:00 +26°C° 0 mm 4 m/s 752 mmHg 70%
    17:00 +25°C° 0 mm 3 m/s 752 mmHg 75%
    18:00 +24°C° 0 mm 3 m/s 751 mmHg 81%
    19:00 +22°C° 0.1 mm 3 m/s 752 mmHg 82%
    20:00 +21°C° 0.1 mm 3 m/s 752 mmHg 83%
    21:00 +20°C° 0.1 mm 4 m/s 752 mmHg 84%
    22:00 +19°C° 0 mm 4 m/s 752 mmHg 80%
    23:00 +17°C° 0 mm 4 m/s 752 mmHg 77%

    30 Iunie, Duminică

    Timp Temperatura Precipitaţii Vânt Presiune Umiditate
    00:00 +15°C° 0 mm 5 m/s 752 mmHg 73%
    01:00 +15°C° 0 mm 4 m/s 752 mmHg 76%
    02:00 +15°C° 0 mm 4 m/s 752 mmHg 79%
    03:00 +14°C° 0 mm 4 m/s 752 mmHg 82%
    04:00 +15°C° 0 mm 4 m/s 752 mmHg 81%
    05:00 +15°C° 0 mm 4 m/s 752 mmHg 80%
    06:00 +17°C° 0 mm 4 m/s 753 mmHg 79%
    07:00 +16°C° 0 mm 5 m/s 753 mmHg 76%
    08:00 +17°C° 0 mm 5 m/s 753 mmHg 73%
    09:00 +19°C° 0 mm 5 m/s 753 mmHg 70%
    10:00 +19°C° 0 mm 6 m/s 754 mmHg 67%
    11:00 +20°C° 0 mm 6 m/s 754 mmHg 63%
    12:00 +21°C° 0 mm 6 m/s 754 mmHg 60%
    13:00 +21°C° 0 mm 6 m/s 754 mmHg 60%
    14:00 +21°C° 0 mm 6 m/s 754 mmHg 59%
    15:00 +21°C° 0 mm 5 m/s 754 mmHg 59%
    16:00 +20°C° 0 mm 5 m/s 754 mmHg 61%
    17:00 +20°C° 0 mm 5 m/s 754 mmHg 63%
    18:00 +19°C° 0 mm 5 m/s 754 mmHg 65%
    19:00 +17°C° 0 mm 5 m/s 754 mmHg 68%
    20:00 +16°C° 0 mm 5 m/s 755 mmHg 71%
    21:00 +15°C° 0 mm 4 m/s 755 mmHg 74%
    22:00 +14°C° 0 mm 4 m/s 755 mmHg 74%
    23:00 +14°C° 0 mm 4 m/s 755 mmHg 74%

    1 Iulie, Luni

    Timp Temperatura Precipitaţii Vânt Presiune Umiditate
    00:00 +13°C° 0 mm 4 m/s 755 mmHg 74%
    01:00 +13°C° 0 mm 4 m/s 755 mmHg 70%
    02:00 +13°C° 0 mm 5 m/s 755 mmHg 67%
    03:00 +13°C° 0 mm 5 m/s 755 mmHg 64%
    04:00 +13°C° 0 mm 5 m/s 756 mmHg 67%
    05:00 +13°C° 0 mm 5 m/s 756 mmHg 69%
    06:00 +13°C° 0 mm 6 m/s 756 mmHg 71%
    07:00 +14°C° 0 mm 6 m/s 756 mmHg 69%
    08:00 +14°C° 0 mm 6 m/s 756 mmHg 66%
    09:00 +15°C° 0 mm 7 m/s 756 mmHg 63%
    10:00 +15°C° 0 mm 7 m/s 756 mmHg 63%
    11:00 +15°C° 0 mm 8 m/s 756 mmHg 64%
    12:00 +16°C° 0 mm 8 m/s 756 mmHg 64%
    13:00 +16°C° 0 mm 8 m/s 757 mmHg 62%
    14:00 +17°C° 0 mm 8 m/s 757 mmHg 60%
    15:00 +17°C° 0 mm 9 m/s 757 mmHg 58%
    16:00 +17°C° 0 mm 8 m/s 758 mmHg 59%
    17:00 +16°C° 0 mm 7 m/s 758 mmHg 60%
    18:00 +16°C° 0 mm 7 m/s 759 mmHg 60%
    19:00 +15°C° 0 mm 6 m/s 759 mmHg 64%
    20:00 +14°C° 0 mm 5 m/s 760 mmHg 68%
    21:00 +12°C° 0 mm 4 m/s 760 mmHg 72%
    22:00 +12°C° 0 mm 4 m/s 761 mmHg 72%
    23:00 +11°C° 0 mm 3 m/s 761 mmHg 73%
    Arată mai mult